User: anonymous   Login
Location: Trois-Rivi�res
(46.3500°N, 72.5500°W)
Time: 08:51:42
(UTC-04:00)
Language:

Cosmos 1975 - Orbit

View from above orbital plane
View from above orbital plane
View from above satellite
View from above satellite

Ground track
Ground track

The orbit data is extracted from the following two-line orbital elements,

1 19573U 88093A   15109.16428134  .00003962  00000-0  29646-3 0  9998
2 19573 082.5244 029.0210 0016859 104.0544 256.2557 15.02385188441106
Epoch (UTC): 19 April 2015 03:56:33
Eccentricity: 0.0016859
inclination: 82.5244°
perigee height: 548 km
apogee height: 571 km
right ascension of ascending node: 29.0210°
argument of perigee: 104.0544°
revolutions per day: 15.02385188
mean anomaly at epoch: 256.2557°
orbit number at epoch: 44110

The dashed part of the orbit path shows where the satellite is in the earth's shadow,  

DLR